When you browse on this site, cookies collect data to enhance your experience and personalize the content and advertising you see.
Visit our Privacy Policy to learn more. By continuing to use the site, you agree to this use of cookies and data.
  • Em Portugal
  • Lista de países
  • Para 7 dias
  • Temperatura da água
  • Mapas de satélite
  • Mapa do tempo
  • Widgets de tempo
  • user-avatar
    Iniciar Sessão

    Previsão horária em Chakhansur

    Hoje, 11 Dezembro, Terça-feira

    Tempo Temperatura Precipitação Vento Pressão Humidade
    00:00 +13°C° 0 mm 3 m/s 720 mmHg 44%
    01:00 +12°C° 0 mm 3 m/s 720 mmHg 46%
    02:00 +12°C° 0 mm 3 m/s 720 mmHg 47%
    03:00 +12°C° 0 mm 3 m/s 720 mmHg 48%
    04:00 +11°C° 0 mm 3 m/s 720 mmHg 50%
    05:00 +11°C° 0 mm 3 m/s 720 mmHg 51%
    06:00 +10°C° 0 mm 3 m/s 720 mmHg 52%
    07:00 +10°C° 0 mm 2 m/s 721 mmHg 53%
    08:00 +12°C° 0 mm 2 m/s 721 mmHg 48%
    09:00 +13°C° 0 mm 3 m/s 721 mmHg 43%
    10:00 +14°C° 0 mm 3 m/s 722 mmHg 37%
    11:00 +16°C° 0 mm 3 m/s 722 mmHg 34%
    12:00 +17°C° 0 mm 3 m/s 721 mmHg 31%
    13:00 +18°C° 0 mm 3 m/s 721 mmHg 28%
    14:00 +19°C° 0 mm 2 m/s 721 mmHg 27%
    15:00 +19°C° 0 mm 2 m/s 721 mmHg 27%
    16:00 +19°C° 0 mm 2 m/s 721 mmHg 26%
    17:00 +18°C° 0 mm 2 m/s 721 mmHg 28%
    18:00 +18°C° 0 mm 1 m/s 721 mmHg 30%
    19:00 +16°C° 0 mm 1 m/s 721 mmHg 32%
    20:00 +15°C° 0 mm 1 m/s 721 mmHg 33%
    21:00 +15°C° 0 mm 1 m/s 721 mmHg 34%
    22:00 +14°C° 0 mm 1 m/s 721 mmHg 35%
    23:00 +14°C° 0 mm 1 m/s 721 mmHg 36%

    Amanhã, 12 Dezembro, Quarta-feira

    Tempo Temperatura Precipitação Vento Pressão Humidade
    00:00 +14°C° 0 mm 2 m/s 721 mmHg 37%
    01:00 +14°C° 0 mm 2 m/s 721 mmHg 38%
    02:00 +13°C° 0 mm 2 m/s 721 mmHg 40%
    03:00 +13°C° 0 mm 2 m/s 721 mmHg 41%
    04:00 +12°C° 0 mm 2 m/s 721 mmHg 43%
    05:00 +12°C° 0 mm 2 m/s 721 mmHg 44%
    06:00 +12°C° 0 mm 1 m/s 722 mmHg 45%
    07:00 +11°C° 0 mm 1 m/s 722 mmHg 46%
    08:00 +13°C° 0 mm 1 m/s 723 mmHg 41%
    09:00 +15°C° 0 mm 1 m/s 723 mmHg 36%
    10:00 +16°C° 0 mm 0 m/s 724 mmHg 31%
    11:00 +17°C° 0 mm 0 m/s 723 mmHg 29%
    12:00 +19°C° 0 mm 1 m/s 723 mmHg 27%
    13:00 +20°C° 0 mm 1 m/s 722 mmHg 25%
    14:00 +20°C° 0 mm 1 m/s 722 mmHg 25%
    15:00 +20°C° 0 mm 1 m/s 722 mmHg 25%
    16:00 +21°C° 0 mm 1 m/s 722 mmHg 25%
    17:00 +19°C° 0 mm 1 m/s 723 mmHg 27%
    18:00 +18°C° 0 mm 1 m/s 723 mmHg 29%
    19:00 +16°C° 0 mm 1 m/s 723 mmHg 31%
    20:00 +16°C° 0 mm 2 m/s 723 mmHg 31%
    21:00 +16°C° 0 mm 2 m/s 723 mmHg 32%
    22:00 +15°C° 0 mm 2 m/s 723 mmHg 32%
    23:00 +15°C° 0 mm 2 m/s 723 mmHg 33%

    Depois de amanhã, 13 Dezembro, Quinta-feira

    Tempo Temperatura Precipitação Vento Pressão Humidade
    00:00 +15°C° 0 mm 2 m/s 723 mmHg 33%
    01:00 +14°C° 0 mm 2 m/s 723 mmHg 34%
    02:00 +14°C° 0 mm 2 m/s 723 mmHg 35%
    03:00 +14°C° 0 mm 2 m/s 723 mmHg 35%
    04:00 +13°C° 0 mm 2 m/s 723 mmHg 36%
    05:00 +12°C° 0 mm 3 m/s 723 mmHg 36%
    06:00 +12°C° 0 mm 3 m/s 723 mmHg 37%
    07:00 +12°C° 0 mm 3 m/s 724 mmHg 37%
    08:00 +13°C° 0 mm 3 m/s 724 mmHg 33%
    09:00 +16°C° 0 mm 3 m/s 725 mmHg 29%
    10:00 +18°C° 0 mm 3 m/s 725 mmHg 25%
    11:00 +19°C° 0 mm 3 m/s 725 mmHg 23%
    12:00 +20°C° 0 mm 2 m/s 724 mmHg 21%
    13:00 +21°C° 0 mm 2 m/s 724 mmHg 19%
    14:00 +21°C° 0 mm 2 m/s 723 mmHg 18%
    15:00 +21°C° 0 mm 2 m/s 723 mmHg 18%
    16:00 +21°C° 0 mm 2 m/s 723 mmHg 17%
    17:00 +20°C° 0 mm 2 m/s 723 mmHg 19%
    18:00 +19°C° 0 mm 3 m/s 723 mmHg 20%
    19:00 +18°C° 0 mm 3 m/s 723 mmHg 22%
    20:00 +17°C° 0 mm 3 m/s 723 mmHg 23%
    21:00 +15°C° 0 mm 4 m/s 724 mmHg 24%
    22:00 +15°C° 0 mm 4 m/s 724 mmHg 25%
    23:00 +14°C° 0 mm 4 m/s 723 mmHg 26%

    14 Dezembro, Sexta-feira

    Tempo Temperatura Precipitação Vento Pressão Humidade
    00:00 +14°C° 0 mm 4 m/s 723 mmHg 26%
    01:00 +14°C° 0 mm 4 m/s 723 mmHg 27%
    02:00 +13°C° 0 mm 4 m/s 723 mmHg 27%
    03:00 +13°C° 0 mm 4 m/s 723 mmHg 28%
    04:00 +12°C° 0 mm 3 m/s 723 mmHg 28%
    05:00 +12°C° 0 mm 3 m/s 723 mmHg 29%
    06:00 +12°C° 0 mm 3 m/s 724 mmHg 29%
    07:00 +12°C° 0 mm 3 m/s 724 mmHg 30%
    08:00 +13°C° 0 mm 3 m/s 724 mmHg 27%
    09:00 +16°C° 0 mm 3 m/s 725 mmHg 23%
    10:00 +18°C° 0 mm 2 m/s 725 mmHg 20%
    11:00 +19°C° 0 mm 2 m/s 725 mmHg 19%
    12:00 +21°C° 0 mm 1 m/s 724 mmHg 18%
    13:00 +22°C° 0 mm 1 m/s 724 mmHg 16%
    14:00 +22°C° 0 mm 1 m/s 724 mmHg 16%
    15:00 +22°C° 0 mm 1 m/s 724 mmHg 16%
    16:00 +22°C° 0 mm 1 m/s 723 mmHg 16%
    17:00 +20°C° 0 mm 2 m/s 724 mmHg 17%
    18:00 +19°C° 0 mm 2 m/s 724 mmHg 18%
    19:00 +18°C° 0 mm 2 m/s 724 mmHg 20%
    20:00 +17°C° 0 mm 2 m/s 724 mmHg 20%
    21:00 +17°C° 0 mm 2 m/s 724 mmHg 21%
    22:00 +16°C° 0 mm 2 m/s 724 mmHg 21%
    23:00 +16°C° 0 mm 2 m/s 724 mmHg 22%

    15 Dezembro, Sábado

    Tempo Temperatura Precipitação Vento Pressão Humidade
    00:00 +15°C° 0 mm 2 m/s 724 mmHg 22%
    01:00 +15°C° 0 mm 2 m/s 723 mmHg 23%
    02:00 +14°C° 0 mm 2 m/s 723 mmHg 23%
    03:00 +14°C° 0 mm 2 m/s 723 mmHg 23%
    04:00 +14°C° 0 mm 2 m/s 723 mmHg 24%
    05:00 +13°C° 0 mm 2 m/s 723 mmHg 24%
    06:00 +13°C° 0 mm 2 m/s 723 mmHg 24%
    07:00 +13°C° 0 mm 2 m/s 724 mmHg 24%
    08:00 +15°C° 0 mm 2 m/s 724 mmHg 21%
    09:00 +16°C° 0 mm 2 m/s 725 mmHg 19%
    10:00 +18°C° 0 mm 2 m/s 725 mmHg 16%
    11:00 +19°C° 0 mm 2 m/s 725 mmHg 15%
    12:00 +21°C° 0 mm 1 m/s 724 mmHg 14%
    13:00 +22°C° 0 mm 1 m/s 724 mmHg 13%
    14:00 +22°C° 0 mm 1 m/s 723 mmHg 13%
    15:00 +22°C° 0 mm 1 m/s 723 mmHg 13%
    16:00 +22°C° 0 mm 1 m/s 723 mmHg 14%
    17:00 +20°C° 0 mm 2 m/s 724 mmHg 15%
    18:00 +19°C° 0 mm 2 m/s 724 mmHg 16%
    19:00 +18°C° 0 mm 2 m/s 724 mmHg 17%
    20:00 +17°C° 0 mm 2 m/s 724 mmHg 18%
    21:00 +17°C° 0 mm 2 m/s 724 mmHg 18%
    22:00 +16°C° 0 mm 2 m/s 725 mmHg 19%
    23:00 +16°C° 0 mm 2 m/s 724 mmHg 20%

    16 Dezembro, Domingo

    Tempo Temperatura Precipitação Vento Pressão Humidade
    00:00 +15°C° 0 mm 2 m/s 724 mmHg 20%
    01:00 +14°C° 0 mm 2 m/s 724 mmHg 21%
    02:00 +14°C° 0 mm 1 m/s 724 mmHg 21%
    03:00 +13°C° 0 mm 1 m/s 724 mmHg 22%
    04:00 +13°C° 0 mm 1 m/s 724 mmHg 23%
    05:00 +13°C° 0 mm 1 m/s 725 mmHg 23%
    06:00 +13°C° 0 mm 1 m/s 725 mmHg 23%
    07:00 +12°C° 0 mm 1 m/s 725 mmHg 23%
    08:00 +14°C° 0 mm 1 m/s 726 mmHg 21%
    09:00 +16°C° 0 mm 2 m/s 727 mmHg 18%
    10:00 +18°C° 0 mm 2 m/s 727 mmHg 16%
    11:00 +19°C° 0 mm 2 m/s 727 mmHg 16%
    12:00 +20°C° 0 mm 3 m/s 726 mmHg 16%
    13:00 +21°C° 0 mm 3 m/s 726 mmHg 16%
    14:00 +21°C° 0 mm 3 m/s 726 mmHg 17%
    15:00 +20°C° 0 mm 3 m/s 725 mmHg 18%
    16:00 +20°C° 0 mm 3 m/s 725 mmHg 19%
    17:00 +19°C° 0 mm 4 m/s 725 mmHg 23%
    18:00 +18°C° 0 mm 4 m/s 726 mmHg 27%
    19:00 +15°C° 0 mm 4 m/s 726 mmHg 31%
    20:00 +15°C° 0 mm 4 m/s 726 mmHg 35%
    21:00 +14°C° 0 mm 4 m/s 726 mmHg 38%
    22:00 +13°C° 0 mm 5 m/s 726 mmHg 41%
    23:00 +13°C° 0 mm 5 m/s 726 mmHg 43%
    Mostrar mais